Location: Cassagne
(43.1218°N, 0.9901°E)
Time: 18:53:54
(UTC+00:00)

Shenzhou-11 Module - Pass Details

Date: 17 February 2020
Orbit: 289 x 307 km, 42.8° (Epoch: 28 March)

Event Time Altitude Azimuth Distance (km) Brightness Sun altitude
Exits shadow 05:36:22 15° 205° (SSW) 931 3.8 -14.4°
Maximum altitude 05:37:54 25° 156° (SSE) 660 3.5 -14.1°
Drops below altitude 10° 05:40:08 10° 97° (E) 1,176 6.0 -13.7°
Sets 05:42:17 0° 84° (E) 2,011 7.5 -13.3°
